This demonstration page uses our WeatherBlox Daily Observations layout. Learn more.

Left ArrowRight Arrow

44.8408, -93.29828

Hourly Observations for November 8, 2020

Temp ( °F °C ) Dew Point ( °F °C ) Humidity (%) Winds ( mph kmh ) Pressure ( in mb ) Visibility ( mi km ) Precip ( " mm )
12:53 am 00:53 Clear 61 16.1 48 8.9 63 63 S 14 22 29.87 1011 10 16 0.00 0.00
1:53 am 01:53 Clear 60 15.6 48 8.9 65 65 S 15 24 29.86 1011 10 16 0.00 0.00
2:53 am 02:53 Clear 58 14.4 48 8.9 70 70 SSE 13 20 29.87 1011 10 16 0.00 0.00
3:53 am 03:53 Clear 57 13.9 48 8.9 72 72 SSE 12 19 29.87 1012 10 16 0.00 0.00
4:53 am 04:53 Clear 55 12.8 48 8.9 77 77 SSE 10 17 29.88 1012 10 16 0.00 0.00
5:53 am 05:53 Clear 55 12.8 48 8.9 77 77 SSE 8 13 29.89 1012 10 16 0.00 0.00
6:53 am 06:53 Clear 54 12.2 48 8.9 80 80 SSE 9 15 29.90 1012 10 16 0.00 0.00
7:53 am 07:53 Sunny 55 12.8 49 9.4 80 80 SSE 13 20 29.91 1013 10 16 0.00 0.00
8:53 am 08:53 Sunny 58 14.4 50 10 75 75 S 20 31 29.91 1013 10 16 0.00 0.00
9:53 am 09:53 Sunny 62 16.7 52 11.1 70 70 S 18 30 29.91 1013 10 16 0.00 0.00
10:53 am 10:53 Mostly Sunny 65 18.3 53 11.7 66 66 S 23 37 29.90 1012 10 16 0.00 0.00
11:53 am 11:53 Mostly Sunny 68 20 54 12.2 61 61 S 22 35 29.88 1012 10 16 0.00 0.00
12:53 pm 12:53 Mostly Sunny 70 21.1 54 12.2 57 57 S 23 37 29.85 1011 10 16 0.00 0.00
1:53 pm 13:53 Mostly Sunny 72 22.2 52 11.1 50 50 S 28 44 29.84 1011 10 16 0.00 0.00
2:53 pm 14:53 Partly Cloudy 72 22.2 53 11.7 52 52 S 20 31 29.83 1010 10 16 0.00 0.00
3:53 pm 15:53 Mostly Sunny 71 21.7 53 11.7 53 53 S 21 33 29.83 1010 10 16 0.00 0.00
4:53 pm 16:53 Mostly Clear 70 21.1 54 12.2 57 57 S 21 33 29.81 1010 10 16 0.00 0.00
5:53 pm 17:53 Clear 69 20.6 54 12.2 59 59 S 21 33 29.84 1011 10 16 0.00 0.00
6:53 pm 18:53 Clear 68 20 53 11.7 59 59 S 14 22 29.86 1011 10 16 0.00 0.00
7:53 pm 19:53 Mostly Cloudy 68 20 54 12.2 61 61 S 13 20 29.87 1012 10 16 0.00 0.00
8:53 pm 20:53 Cloudy 66 18.9 54 12.2 65 65 SSE 10 17 29.87 1012 10 16 0.00 0.00
9:53 pm 21:53 Cloudy 66 18.9 56 13.3 70 70 S 13 20 29.86 1011 10 16 0.00 0.00
10:53 pm 22:53 Cloudy 67 19.4 57 13.9 71 71 S 22 35 29.85 1011 10 16 0.00 0.00
11:53 pm 23:53 Cloudy 66 18.9 57 13.9 73 73 S 21 33 29.85 1011 10 16 0.00 0.00

Powered by AerisWeather